sat.trackr.live / text

‹ back to catalog

COSMOS 2611

NORAD 68759 · 2026-083G

PAYLOAD ACTIVE UNKNOWN

§ Identity

Operator
Country
CIS
Launch date
2026-04-16
Launch site
PLMSC
Launch vehicle
Mass (kg)
RCS (m²)

External: N2YO · Heavens-Above · Gunter

§ Orbital elements

Epoch: 2026-05-24T23:04:23.107584Z

Period
95.61 min
Inclination
97.8081°
Eccentricity
0.0012524
Mean motion
15.06070872 rev/d
Perigee alt
539.5 km
Apogee alt
556.9 km
Semi-major
6,926.4 km
B*
1.0431e-4
RAAN
282.0662°
Arg perigee
134.5505°
Mean anomaly
225.6747°
Rev number
569

§ Raw data

COSMOS 26111 68759U 26083G   26144.96137856  .00001460  00000+0  10431-3 0  99982 68759  97.8081 282.0662 0012524 134.5505 225.6747 15.06070872  5692

JSON: /api/v1/satellites/68759 · /tle

For live sub-satellite position, see the globe view (requires WebGL).

§ Visibility from observer

Set your observer location to see the next 7 days of passes ≥ 10°. The values pass through the URL so the page stays shareable.

No JS? Fill the form by hand. The geolocation button needs JavaScript.